Regional Weather Roundup
Issued by NWS

Home | Current Version | Previous Version | Graphics & Text | Print | Product List | Glossary On
Versions: 1 2 3 4 5 6 7 8 9 10 11 12 13 14 15 16 17 18 19 20 21 22 23 24 25 26 27 28 29 30 31 32 33 34 35 36 37 38 39 40 41 42 43 44 45 46 47 48 49 50
000
ASUS45 KCYS 240310
RWRWY

WYOMING REGIONAL WEATHER ROUNDUP
NATIONAL WEATHER SERVICE CHEYENNE WY
900 PM MDT WED JUL 23 2014

NOTE:  "FAIR" INDICATES FEW OR NO CLOUDS BELOW 12,000 FEET
WITH NO SIGNIFICANT WEATHER AND/OR OBSTRUCTIONS TO VISIBILITY.

WYZ001-240400-
YELLOWSTONE NATIONAL PARK

CITY           SKY/WX    TMP DP  RH WIND       PRES   REMARKS
LK YELLOWSTONE   N/A     63  42  46 NW6       30.30F
W YELLOWSTONE  NOT AVBL

$$
WYZ002>013-054>058-071-098>099-240400-
NORTHERN WYOMING

CITY           SKY/WX    TMP DP  RH WIND       PRES   REMARKS
JACKSON        CLEAR     73  39  29 SW6       30.15F
CODY           NOT AVBL
GREYBULL       MOCLDY    89  41  18 W6        29.89S
WORLAND        PTCLDY    91  38  15 S16       29.91S
SHERIDAN       PTCLDY    77  58  51 CALM      29.94S
BUFFALO        PTCLDY    82  56  40 S6        30.05R
GILLETTE       CLEAR     84  60  44 SE18G24   30.00F
HULETT         FAIR      79  57  47 MISG      30.03
NEWCASTLE      FAIR      81  57  44 MISG      30.04

$$
WYZ014>020-022>026-101>103-240400-
CENTRAL WYOMING

CITY           SKY/WX    TMP DP  RH WIND       PRES   REMARKS
BIG PINEY      CLEAR     73  36  25 NW7       30.23F
PINEDALE       CLEAR     77  36  22 MISG      30.25F
DUBOIS         FAIR      72  30  21 W10       30.23S
LANDER         PTCLDY    84  36  18 SW18      30.07F
RIVERTON       PTCLDY    85  33  15 SW10      30.07F
CASPER         CLOUDY    86  36  16 S14G21    30.08F
DOUGLAS        PTCLDY    79  44  28 S9        30.10F

$$
WYZ021-027>030-104>119-240400-
SOUTHERN WYOMING

CITY           SKY/WX    TMP DP  RH WIND       PRES   REMARKS
EVANSTON       PTCLDY    74  40  29 S7        30.25S
KEMMERER       PTCLDY    75  37  25 SE12      30.27S
FORT BRIDGER   FAIR      77  39  25 S15       30.27F
ROCK SPRINGS   CLOUDY    81  31  16 S12G23    30.24F
DIXON          FAIR      86  29  13 S15       30.26R
RAWLINS        MOCLDY    82  27  13 NW10      30.24S
SARATOGA       FAIR      79  41  25 SE12G18   30.29S
LARAMIE        CLOUDY    71  41  33 SE21G28   30.34F
CHEYENNE       CLOUDY    75  47  36 SW18G26   30.28S
TORRINGTON     MOCLDY    83  66  56 SE9       30.08F
PINE BLUFFS    FAIR      77  50  38 SW10      30.21S

$$


USA.gov is the U.S. government's official web portal to all federal, state and local government web resources and services.